Regional Weather Roundup
Issued by NWS

Home | Current Version | Previous Version | Graphics & Text | Print | Product List | Glossary On
Versions: 1 2 3 4 5 6 7 8 9 10 11 12 13 14 15 16 17 18 19 20 21 22 23 24 25 26 27
000
ASUS45 KPSR 170910
RWRAZ

ARIZONA HOURLY REGIONAL WEATHER ROUNDUP
NATIONAL WEATHER SERVICE PHOENIX AZ
200 AM MST TUE OCT 17 2017

NOTE: FAIR INDICATES FEW OR NO CLOUDS BELOW 12,000 FEET WITH NO
SIGNIFICANT WEATHER AND/OR OBSTRUCTIONS TO VISIBILITY.

AZZ001>003-036-171000-
NORTHWEST ARIZONA

CITY           SKY/WX    TMP DP  RH WIND       PRES   REMARKS
BULLHEAD CITY  CLEAR     70  30  23 N6        30.04S
KINGMAN        CLEAR     54  15  21 CALM      30.21S
$$

AZZ004>008-015-016-018-171000-
NORTH CENTRAL ARIZONA

CITY           SKY/WX    TMP DP  RH WIND       PRES   REMARKS
GRAND CANYON   PTCLDY    31   7  36 CALM      30.42R
WILLIAMS       PTCLDY    45  23  42 S13       30.40S
PRESCOTT       CLEAR     51  29  42 S7        30.30S
FLAGSTAFF      CLEAR     35  18  49 CALM      30.43R
PAYSON           N/A     55  28  35 CALM      30.33S
PAGE           PTCLDY    48  14  25 W3        30.31R
$$

AZZ009>014-017-171000-
NORTHEAST ARIZONA

CITY           SKY/WX    TMP DP  RH WIND       PRES   REMARKS
WINSLOW        PTCLDY    43  11  27 CALM      30.33S
SAINT JOHNS    CLEAR     46  22  38 CALM      30.36S
WINDOW ROCK    CLEAR     31   9  39 CALM      30.43S
SHOW LOW       CLEAR     50  34  53 CALM      30.39F
$$

AZZ540-542>544-546-548-171000-
GREATER PHOENIX AREA

CITY           SKY/WX    TMP DP  RH WIND       PRES   REMARKS
PHOENIX        CLEAR     76  42  29 CALM      29.99F
BUCKEYE        CLEAR     70  25  18 N8        30.00S
LUKE AFB       CLEAR     69  35  29 N7        29.99S
DEER VALLEY    CLEAR     78  38  23 NE10      30.02S
SCOTTSDALE     CLEAR     73  43  33 CALM      30.03F
MESA-GATEWAY   CLEAR     68  41  37 SE3       30.02F
$$

AZZ539-553-171000-
SOUTHWEST MARICOPA COUNTY AND PINAL COUNTY

CITY           SKY/WX    TMP DP  RH WIND       PRES   REMARKS
CASA GRANDE    NOT AVBL
$$

AZZ503-504-507>509-171000-
SOUTHEAST ARIZONA

CITY           SKY/WX    TMP DP  RH WIND       PRES   REMARKS
TUCSON         CLEAR     78  46  32 E14       30.11F
DAVIS-MONTHAN  CLEAR     75  43  31 E3        30.10S
NOGALES        CLEAR     67  47  48 NE8       30.18S
SIERRA VISTA   CLEAR     64  45  49 NE3       30.26S
DOUGLAS        CLEAR     60  44  55 N9        30.23S
SAFFORD        CLEAR     66  43  43 SE8       30.20R
$$

AZZ532-171000-
SOUTHWEST ARIZONA

CITY           SKY/WX    TMP DP  RH WIND       PRES   REMARKS
YUMA           CLEAR     78  16   9 N6        29.95F
$$

CAZ041-043-047-048-061-525>527-560>570-171000-
SOUTHERN CALIFORNIA

CITY           SKY/WX    TMP DP  RH WIND       PRES   REMARKS
DOWNTOWN L.A.  CLEAR     71  44  37 CALM      29.98F
L.A. AIRPORT   PTCLDY    71  48  43 CALM      29.99S
SAN DIEGO      MOCLDY    70  41  34 CALM      29.99F
BURBANK        CLEAR     68  27  21 N3        30.01F
ONTARIO        PTCLDY    66  35  31 NE3       30.02F
RIVERSIDE      CLEAR     69  34  27 NE6       30.03F
PALM SPRINGS   CLEAR     76  21  12 NW8       30.02S
EL CENTRO NAS  PTCLDY    67  13  12 W7        29.97F
IMPERIAL       PTCLDY    65  32  29 W7        29.95F
BLYTHE         CLEAR     69  11  10 W7        30.00S
NEEDLES        CLEAR     69   4   7 W7        30.05S
$$

NVZ020-UTZ003-171000-
SOUTHERN NEVADA-UTAH

CITY           SKY/WX    TMP DP  RH WIND       PRES   REMARKS
LAS VEGAS      PTCLDY    59  16  18 SW3       30.15R
SALT LAKE CITY CLEAR     41  32  70 SE5       30.32S
$$

NMZ009-TXZ055-171000-
NEW MEXICO-WEST TEXAS

CITY           SKY/WX    TMP DP  RH WIND       PRES   REMARKS
ALBUQUERQUE    CLOUDY    55  25  31 CALM      30.36S
EL PASO        PTCLDY    61  37  41 NE3       30.28F
$$


........................KEY........................
SKY/WX - SKY CONDITION/WEATHER
TMP    - TEMPERATURE IN FAHRENHEIT
DP     - DEW POINT IN FAHRENHEIT
RH     - RELATIVE HUMIDITY IN PERCENT
WIND   - DIRECTION AND SPEED IN MILES PER HOUR (MPH)
VRB    - VARIABLE WIND DIRECTION
PRES   - MEAN SEA LEVEL PRESSURE IN INCHES OF MERCURY
         F - FALLING PRESSURE   R - RISING PRESSURE
         S - STEADY PRESSURE
VSB    - VISIBILITY IN MILES
HX     - HEAT INDEX IN FAHRENHEIT
WCI    - WIND CHILL INDEX IN FAHRENHEIT
TC     - TEMPERATURE IN CELSIUS WHICH IS ALSO KNOWN AS
         TEMPERATURE IN CENTIGRADE
AFB    - AIR FORCE BASE
         LUKE AFB IS LUKE AIR FORCE BASE
         DAVIS-MONTHAN IS DAVIS-MONTHAN AIR FORCE BASE
NAS    - NAVAL AIR STATION
         EL CENTRO NAS IS EL CENTRO NAVAL AIR STATION
N/A    - NOT AVAILABLE





USA.gov is the U.S. government's official web portal to all federal, state and local government web resources and services.